Tracking 30995 objects as of 7-Jul-2025
HD Live streaming from Space Station
objects crossing your sky now

STARLINK-3738

Track STARLINK-3738 now!
10-day predictions
STARLINK-3738 is classified as:


NORAD ID: 52117
Int'l Code: 2022-029AF
Perigee: 545.8 km
Apogee: 547.9 km
Inclination: 53.2 °
Period: 95.4 minutes
Semi major axis: 6917 km
RCS: Unknown
Launch date: March 19, 2022
Source: United States (US)
Launch site: AIR FORCE EASTERN TEST RANGE (AFETR)
Your satellite tracking list
Your tracking list is empty




NASA's NSSDC Master Catalog

Two Line Element Set (TLE):
1 52117U 22029AF  25187.18017783  .00000225  00000-0  32254-4 0  9998
2 52117  53.2176 105.7418 0001528  91.8223 268.2944 15.08841440183584
Source of the keplerian elements: AFSPC